Home > Time Zones > World Clock > Weather > U.S.A. > Waco > Past weeks

Flag for U.S.A. Weather past 2 weeks in Waco, Texas, U.S.A.

Now
68 °F

Overcast.


Feels Like: 68 °F
Forecast: 61 / 81 °F
Wind: 8 mph from South

Location: Waco Regional Airport


UV Index: 5 (Moderate)

Visibility: 10 mi


Pressure: 30.03 "Hg

Humidity: 76%

Dew point: 60 °F

Location of WacoLocation

Historic Weather in Waco

°F

Waco temperature yesterday

Maximum temperature yesterday: 77 °F (at 4:51 PM)
Minimum temperature yesterday: 59 °F (at 6:51 AM)
Average temperature yesterday: 67 °F

Past Weeks' High & Low Weather Summary

 TemperatureHumidityPressure
High84 °F (Apr 10, 3:51 PM)100% (Apr 18, 6:59 AM)30.36 "Hg (Apr 18, 6:59 AM)
Low31 °F (Apr 15, 6:51 AM)21% (Apr 8, 3:51 PM)29.63 "Hg (Apr 13, 4:51 PM)
Average61 °F68%30.01 "Hg
* Reported Apr 5 10:51 PM — Apr 20 10:51 PM, Waco, Weather by CustomWeather, © 2014

Note: Actual official high and low records may vary slightly from our data, if they occured in-between our weather recording intervals... More about our weather records

Advertising

Historic Weather Conditions — Data for Previous 24 hours

 ConditionsComfort  
Time TempWeatherWind HumidityBarometerVisibility
10:51 PM
Apr 20
69 °FOvercast.No wind81%30.04 "Hg10 mi
9:51 PM69 °FOvercast.No wind81%30.03 "Hg10 mi
8:51 PM69 °FOvercast.No wind79%30.03 "Hg10 mi
7:51 PM71 °FMostly cloudy.14 mph66%30.02 "Hg10 mi
6:51 PM73 °FOvercast.8 mph59%30.01 "Hg10 mi
5:51 PM74 °FMostly cloudy.12 mph57%30.01 "Hg10 mi
4:51 PM77 °FMore clouds than sun.14 mph52%30.01 "Hg10 mi
3:51 PM75 °FScattered clouds.9 mph58%30.04 "Hg10 mi
2:51 PM72 °FScattered clouds.15 mph59%30.03 "Hg10 mi
1:51 PM76 °FSunny.16 mph52%30.08 "Hg10 mi
12:51 PM71 °FPassing clouds.9 mph76%30.12 "Hg9 mi
11:51 AM69 °FSunny.13 mph73%30.14 "Hg9 mi
10:51 AM65 °FLight rain. Scattered clouds.12 mph85%30.13 "Hg9 mi
9:51 AM64 °FPassing clouds.10 mph87%30.13 "Hg7 mi
8:51 AM61 °FPassing clouds.8 mph87%30.12 "Hg7 mi
7:51 AM59 °FPassing clouds.6 mph90%30.12 "Hg7 mi
6:51 AM59 °FPassing clouds.6 mph90%30.11 "Hg9 mi
5:51 AM60 °FClear.7 mph86%30.11 "Hg10 mi
4:51 AM62 °FPassing clouds.8 mph83%30.09 "Hg10 mi
3:51 AM63 °FOvercast.6 mph81%30.11 "Hg10 mi
2:51 AM63 °FOvercast.6 mph78%30.11 "Hg10 mi
1:51 AM64 °FOvercast.5 mph75%30.11 "Hg10 mi
12:51 AM60 °FPassing clouds.No wind83%30.11 "Hg10 mi
Weather by CustomWeather, © 2014

See weather overview